Location: Unspecified
(0.0000°N, 0.0000°E)
Time: 14:29:18
(UTC+00:00)

CUTE-I - Pass Details

Date: 13 December 2019
Orbit: 811 x 824 km, 98.7° (Epoch: 13 August)

Event Time Altitude Azimuth Distance (km) Brightness Sun altitude
Rises 18:47:22 0° 192° (SSW) 3,347 ? -12.2°
Reaches altitude 10° 18:50:08 10° 205° (SSW) 2,414 ? -12.8°
Maximum altitude 18:54:18 23° 257° (WSW) 1,660 ? -13.8°
Drops below altitude 10° 18:58:29 10° 309° (NW) 2,412 ? -14.7°
Sets 19:01:17 0° 323° (NW) 3,343 ? -15.4°
